Bangor, ME

8:14 PM EST on February 05, 2016 (GMT -0500)
Bangor International

Weather History for KBGR - October, 2011

Change the Weather History Date:

Saturday, October 22, 2011

  Actual Average Record
Temperature  
Mean Temperature 48 °F 45 °F  
Max Temperature 56 °F 55 °F 84 °F (1979)
Min Temperature 40 °F 35 °F 20 °F (1959)
Degree Days  
Heating Degree Days 17 20  
Month to date heating degree days 255 359  
Since 1 July heating degree days 386 631  
Cooling Degree Days 0 0  
Month to date cooling degree days 2 0  
Year to date cooling degree days 348 317  
Moisture  
Dew Point 44 °F    
Average Humidity 82    
Maximum Humidity 93    
Minimum Humidity 71    
Precipitation  
Precipitation 0.12 in 0.13 in 1.08 in (1942)
Month to date precipitation 4.19 2.98  
Year to date precipitation 37.31 33.06  
Snow  
Snow 0.00 in 0.00 in 1.10 in (1969)
Month to date snowfall 0.0 0.1  
Since 1 July snowfall 0.0 0.1  
Since 1 September snowfall 0.0 0.1  
Snow Depth 0.00 in    
Sea Level Pressure  
Sea Level Pressure 29.95 in    
Wind  
Wind Speed 2 mph (NW)    
Max Wind Speed 13 mph    
Max Gust Speed 16 mph    
Visibility 9 miles    
Events Rain    
T = Trace of Precipitation, MM = Missing Value Source: NWS Daily Summary

Daily Weather History Graph

Daily Weather History Graph

Search for Another Location

Airport or City:

Trip Planner

Search our weather history database for the weather conditions in past years. The results will help you decide how hot, cold, wet, or windy it might be!

Date:

Astronomy

Oct. 22, 2011 Rise Set
Actual Time 6:59 AM EDT 5:39 PM EDT
Civil Twilight 6:29 AM EDT 6:09 PM EDT
Nautical Twilight 5:55 AM EDT 6:43 PM EDT
Astronomical Twilight 5:21 AM EDT 7:17 PM EDT
Moon 1:40 AM EDT (10/22) 3:05 PM EDT (10/22)
Length of Visible Light 11h 39m
Length of Day
10h 39m
Waning Crescent, 24% of the Moon is Illuminated
Oct 22
Waning Crescent
Oct 26
New
Nov 2
First Quarter
Nov 10
Full
Nov 18
Last Quarter

Hourly Weather History & Observations

Time (EDT) Temp. Windchill Dew Point Humidity Pressure Visibility Wind Dir Wind Speed Gust Speed Precip Events Conditions
12:53 AM 45.0 °F 43.5 °F 42.1 °F 90% 29.90 in 10.0 mi South 3.5 mph - N/A   Clear
1:53 AM 42.1 °F - 39.9 °F 92% 29.91 in 10.0 mi Calm Calm - N/A   Clear
2:53 AM 41.0 °F - 39.9 °F 96% 29.92 in 10.0 mi Calm Calm - N/A   Scattered Clouds
3:53 AM 41.0 °F - 39.0 °F 93% 29.91 in 10.0 mi Calm Calm - N/A   Scattered Clouds
4:53 AM 44.1 °F - 42.1 °F 93% 29.93 in 10.0 mi Calm Calm - N/A   Overcast
5:53 AM 45.0 °F - 43.0 °F 93% 29.94 in 10.0 mi Calm Calm - N/A   Overcast
6:53 AM 45.0 °F - 43.0 °F 93% 29.94 in 10.0 mi Calm Calm - N/A   Overcast
7:53 AM 46.4 °F - 44.6 °F 93% 29.95 in 10.0 mi Calm Calm - N/A   Overcast
8:53 AM 46.9 °F - 44.1 °F 90% 29.96 in 10.0 mi Calm Calm - N/A   Overcast
9:53 AM 48.9 °F - 45.0 °F 86% 29.96 in 10.0 mi Calm Calm - N/A   Overcast
10:53 AM 51.1 °F - 46.0 °F 83% 29.96 in 10.0 mi Calm Calm - N/A   Overcast
11:53 AM 54.0 °F - 46.0 °F 75% 29.95 in 10.0 mi Calm Calm - N/A   Overcast
12:53 PM 54.0 °F - 45.0 °F 72% 29.94 in 10.0 mi NE 3.5 mph - N/A   Overcast
1:53 PM 50.0 °F - 46.0 °F 86% 29.94 in 8.0 mi NW 5.8 mph - 0.07 in Rain Light Rain
1:55 PM 50.0 °F - 46.4 °F 87% 29.93 in 1.0 mi North 4.6 mph - 0.03 in Rain Heavy Rain
2:05 PM 51.8 °F - 46.4 °F 82% 29.93 in 3.0 mi North 4.6 mph - 0.05 in Rain Light Rain
2:53 PM 54.0 °F - 46.0 °F 75% 29.94 in 10.0 mi NE 4.6 mph - 0.05 in   Overcast
3:53 PM 54.0 °F - 45.0 °F 72% 29.94 in 10.0 mi Calm Calm - 0.00 in   Overcast
4:53 PM 53.1 °F - 46.9 °F 80% 29.95 in 10.0 mi Calm Calm - N/A   Overcast
5:53 PM 50.0 °F - 48.0 °F 93% 29.96 in 10.0 mi Calm Calm - N/A   Overcast
6:53 PM 50.0 °F - 48.0 °F 93% 29.98 in 10.0 mi West 3.5 mph - N/A   Overcast
7:53 PM 48.9 °F - 45.0 °F 86% 29.99 in 10.0 mi Calm Calm - 0.00 in Rain Light Rain
8:53 PM 48.9 °F - 45.0 °F 86% 30.00 in 10.0 mi Calm Calm - 0.00 in   Overcast
9:53 PM 48.9 °F - 45.0 °F 86% 30.01 in 10.0 mi West 4.6 mph - N/A   Overcast
10:53 PM 48.9 °F - 44.1 °F 83% 30.01 in 10.0 mi WNW 4.6 mph - N/A   Overcast
11:53 PM 48.0 °F - 44.1 °F 86% 30.01 in 10.0 mi West 3.5 mph - N/A   Overcast